User: anonymous   Login
Location: Unspecified
(0.0000°N, 0.0000°E)
Time: 16:38:26
(UTC+00:00)
Language:

COSMOS 2401 - Orbit

View from above orbital plane
View from above orbital plane
View from above satellite
View from above satellite

Ground track
Ground track

The orbit data is extracted from the following two-line orbital elements,

1 27869U 03037B   17204.94274803 -.00000001 +00000-0 -72970-4 0  9998
2 27869 082.4676 205.4768 0022197 331.0094 028.9760 12.45451459633307
Epoch (UTC): 23 July 2017 22:37:33
Eccentricity: 0.0022197
inclination: 82.4676°
perigee height: 1466 km
apogee height: 1501 km
right ascension of ascending node: 205.4768°
argument of perigee: 331.0094°
revolutions per day: 12.45451459
mean anomaly at epoch: 28.9760°
orbit number at epoch: 63330

The dashed part of the orbit path shows where the satellite is in the earth's shadow,  

DLR